Observations for Trim Patrick St
| Time | AQI | Temp °C | Hum % | Pres Pa | CO μg/m³ | H₂S μg/m³ | NO μg/m³ | NO₂ μg/m³ | O₃ μg/m³ | SO₂ μg/m³ | PM1 μg/m³ | PM2.5 μg/m³ | PM10 μg/m³ |
|---|---|---|---|---|---|---|---|---|---|---|---|---|---|
| Saturday 8 August 2026 | |||||||||||||
| 17:54 | 3 | 33 | 31 | 69,383 | 0 | 13.34 | 0.65 | 18.21 | 84.99 | 19.2 | 2 | 8.39 | 9.23 |
| 17:53 | 3 | 33 | 32 | 69,371 | 0 | 9.44 | 0.63 | 16.06 | 84.63 | 18.87 | 2 | 7.58 | 8.34 |
| 17:52 | 3 | 33 | 32 | 69,387 | 0 | 8.79 | 0.61 | 13.61 | 75.39 | 19.44 | 2 | 7.56 | 8.32 |
| 17:51 | 3 | 33 | 31 | 69,379 | 0 | 12.05 | 0.61 | 15.59 | 98.15 | 19.27 | 2 | 8.4 | 9.24 |
| 17:50 | 3 | 33 | 31 | 69,395 | 0 | 12.51 | 0.62 | 15.16 | 99.5 | 19.35 | 2 | 7.61 | 8.37 |
| 17:49 | 3 | 33 | 31 | 69,389 | 0 | 15.31 | 0.61 | 15.39 | 118.66 | 20.63 | 2.86 | 8.42 | 9.26 |
| 17:48 | 3 | 32.9 | 31 | 69,408 | 0 | 2.37 | 0.66 | 12.84 | 75.83 | 19.3 | 2 | 7.62 | 8.38 |
| 17:47 | 3 | 32.8 | 32 | 69,410 | 0 | 12.45 | 0.68 | 12.46 | 97.71 | 20.38 | 2 | 8.37 | 9.21 |
| 17:46 | 3 | 32.7 | 32 | 69,412 | 0 | 4.38 | 0.67 | 14.72 | 87.43 | 18 | 2 | 7.53 | 8.28 |
| 17:45 | 3 | 32.7 | 32 | 69,412 | 0 | 8.04 | 0.67 | 12.56 | 104.34 | 20.23 | 2 | 7.54 | 8.3 |
| 17:44 | 3 | 32.7 | 32 | 69,416 | 0 | 13.83 | 0.68 | 14.36 | 94.86 | 19.19 | 2 | 8.38 | 9.21 |
| 17:43 | 3 | 32.8 | 31 | 69,418 | 0 | 10.59 | 0.69 | 39.52 | 72.42 | 17.6 | 2 | 7.64 | 8.4 |
| 17:41 | 3 | 33 | 30 | 69,424 | 0 | 3.79 | 0.65 | 13.53 | 106.52 | 19.34 | 2.86 | 8.45 | 9.29 |
| 17:40 | 3 | 33.2 | 31 | 69,430 | 0 | 9.29 | 0.62 | 13.3 | 87.65 | 20.39 | 2 | 7.62 | 8.38 |
| 17:39 | 3 | 33.3 | 30 | 69,434 | 0 | 0.36 | 0.62 | 13.11 | 82.13 | 19.65 | 2 | 8.48 | 9.33 |
| 17:38 | 3 | 33.5 | 30 | 69,440 | 0 | 5.7 | 0.58 | 14.62 | 86.35 | 19.8 | 2.86 | 8.45 | 9.29 |
| 17:37 | 3 | 33.6 | 30 | 69,418 | 0 | 0 | 0.59 | 12.09 | 75.43 | 20.59 | 2.86 | 8.47 | 9.32 |
| 17:36 | 3 | 33.6 | 30 | 69,450 | 0 | 10.03 | 0.6 | 14.93 | 102.39 | 20.43 | 2 | 8.49 | 9.34 |
| 17:35 | 3 | 33.8 | 30 | 69,458 | 0 | 4 | 0.52 | 12.82 | 88.27 | 20.81 | 2 | 7.65 | 8.41 |
| 17:34 | 3 | 33.9 | 30 | 69,465 | 0 | 3.93 | 0.55 | 15.49 | 105.46 | 19.56 | 2.86 | 8.51 | 9.36 |